STARLINK-5440, 54785

Orbit data source: Space-Track

STARLINK-5440, 54785 is a payload satellite owned by SpaceX/Seattle (US) in LEO that was launched on Sat, 17 Dec 2022 UTC via an FALCON 9 launch vehicle from the Air Force Eastern Test Range (AFETR). Payload-class satellites include a variety of spacecraft equipped with specific instruments for various scientific and technological missions. These include communications satellites like Starlink; space stations such as the ISS; scientific satellites like the Hubble; Earth observation satellites from companies like Planet Labs, Umbra, and HawkEye 360; GPS; miniature CubeSats for education and research; and military/defense satellites.

Loading next visibility...
Identifier
54785, 2022-175AD
Orbit
LEO
Last TLE update
14 hours ago
Origin
Manufacturer
SpaceX/Seattle
Mission
Operational Commercial Communications
Bus & Motor
STARLINK, Unknown motor
Mass
305 kg wet, ~290 kg dry
Launch date (UTC)
2022-12-17 (2 years ago)
Launch vehicle
FALCON 9
Launch site
Air Force Eastern Test Range (AFETR)
Object type
Payload
Rocket body
Debris
Shape & HBR
Box + 1 Pan, 8.86 m
Radar Cross Section
13.562 m², Large (>1 m²)

Expand to show TLE details & history

TLE from 14 hours ago
0 STARLINK-5440
1 54785U 22175AD  25130.64886185  .00000561  00000-0  53327-4 0  9999
2 54785  53.2181 269.3943 0000982  82.1148 277.9956 15.08841146134944
Epoch: 2025-05-10T15:34Z
Definitive object data (Epoch: 2025-05-10T15:34:21.663Z)
Latitude
-0.00001°
Longitude
167.1164°
Altitude
540.543 km
Speed
7.593 km/s
True Right ascension
17h 57m 34s
True Declination
0° 00' 00"
Sunlit
Object was in full shadow at TLE epoch
Visualization TLE readout
Latitude
0.25938°
Longitude
164.6321°
Altitude
540.524 km
Speed
7.593 km/s
Apparent Right ascension
20h 45m 11s
Apparent Declination
-35° 18' 42"
Sunlit
Object is in full shadow
Visualization observer readout
Local Sidereal Time
14:09:32
Azimuth
114.195° SE
Elevation
-27.895°
Doppler factor
1
Orbital elements
Apogee altitude
540.664 km
Perigee altitude
539.305 km
Semi-major axis
6,918.122 km
Eccentricity
0.0000982
Inclination
53.2181°
RAAN
269.3943°
Arg. of periapsis
82.1148°
True anomaly
277.98446°
Mean anomaly
277.9956°
Eccentric anomaly
277.99003°
Mean motion
3.77191 °/min
BSTAR
0.000053327
Orbital period
95.44 mins
Loading maneuver chart data...
Loading SW <> Apogee altitude chart data...
Loading historical data...
Loading historical data...
Loading historical data...
Loading historical data...
Loading historical data...
Loading historical data...
Loading historical data...

STARLINK-5440 Visibility forecast

Observer location: undefined°, undefined°

Span
Click to sort rows by Start time (UTC) header in descending order
Start Az.
Max El. time (UTC)
Max El. Az.
Max El.
End time (UTC)
End Az.
5 mins2025-05-11 10:47:54.893Z175.173° S2025-05-11 10:50:54.893Z121.512° SE20.285°2025-05-11 10:52:54.893Z86.197° E
6 mins2025-05-11 12:26:54.893Z253.42° W2025-05-11 12:29:54.893Z338.405° N37.539°2025-05-11 12:32:54.893Z38.761° NE
5 mins2025-05-11 17:28:54.893Z342.72° N2025-05-11 17:30:54.893Z26.033° NE24.725°2025-05-11 17:33:54.893Z82.584° E
6 mins2025-05-11 19:07:54.893Z294.951° NW2025-05-11 19:10:54.893Z199.96° SSW37.233°2025-05-11 19:13:54.893Z150.35° SSE
|